WetterOnline ( http://www.wetteronline.de )

Wetter aktuell Bonn

Aktuelles Wetter: Roleber (162m)

6-stündlich | Neueste Meldungen
Ortszeit Temperatur Wetter
Do, 21.06. 8:00 18.3° C bewölkt
Do, 21.06. 2:00 19.3° C fast wolkenlos
Mi, 20.06. 20:00 26.7° C fast wolkenlos
Mi, 20.06. 14:00 25.9° C wolkig
Mi, 20.06. 8:00 19.4° C bedeckt
Mi, 20.06. 2:00 17.9° C bedeckt
Di, 19.06. 20:00 20.4° C bedeckt
Di, 19.06. 14:00 19.3° C bedeckt
Ortszeit Temperatur Wetter
Do, 21.06. 8:30 18.0° C bewölkt
Do, 21.06. 8:10 18.3° C bewölkt
Do, 21.06. 8:00 18.3° C bewölkt
Do, 21.06. 7:50 18.3° C bewölkt
Do, 21.06. 7:40 18.2° C bewölkt
Do, 21.06. 7:30 18.4° C wolkig
Do, 21.06. 7:00 18.6° C leicht bewölkt
Do, 21.06. 6:30 18.4° C wolkenlos
Do, 21.06. 6:00 17.7° C fast wolkenlos
Do, 21.06. 5:30 17.5° C leicht bewölkt
Ortszeit Relative Feuchte Sichtweite
Do, 21.06. 8:00 74% 35 km
Do, 21.06. 2:00 73% 35 km
Mi, 20.06. 20:00 46% 70 km
Mi, 20.06. 14:00 52% 45 km
Mi, 20.06. 8:00 82% 25 km
Mi, 20.06. 2:00 87% 26 km
Di, 19.06. 20:00 72% 40 km
Di, 19.06. 14:00 77% 16 km
Ortszeit Relative Feuchte Sichtweite
Do, 21.06. 8:30 77% 23 km
Do, 21.06. 8:10 75% -
Do, 21.06. 8:00 74% 35 km
Do, 21.06. 7:50 74% -
Do, 21.06. 7:40 72% -
Do, 21.06. 7:30 72% 30 km
Do, 21.06. 7:00 71% 35 km
Do, 21.06. 6:30 73% 30 km
Do, 21.06. 6:00 76% 29 km
Do, 21.06. 5:30 78% 26 km
Ortszeit Niederschlagsmenge Niederschlagsart
Do, 21.06. 8:00 0.0 l/m2 in 12 Std. -
Do, 21.06. 2:00 0.0 l/m2 in 6 Std. -
Mi, 20.06. 20:00 0.0 l/m2 in 12 Std. -
Mi, 20.06. 14:00 0.0 l/m2 in 6 Std. -
Mi, 20.06. 8:00 0.0 l/m2 in 12 Std. -
Mi, 20.06. 2:00 0.0 l/m2 in 6 Std. -
Di, 19.06. 20:00 0.1 l/m2 in 12 Std. Regen
Di, 19.06. 14:00 0.1 l/m2 in 6 Std. Regen
Ortszeit Niederschlagsmenge Niederschlagsart
Do, 21.06. 8:30 0.0 l/m2 in 1 Std. -
Do, 21.06. 8:10 keine Meldung -
Do, 21.06. 8:00 0.0 l/m2 in 1 Std. -
Do, 21.06. 7:50 keine Meldung -
Do, 21.06. 7:40 keine Meldung -
Do, 21.06. 7:30 0.0 l/m2 in 1 Std. -
Do, 21.06. 7:00 0.0 l/m2 in 1 Std. -
Do, 21.06. 6:30 0.0 l/m2 in 1 Std. -
Do, 21.06. 6:00 0.0 l/m2 in 1 Std. -
Do, 21.06. 5:30 0.0 l/m2 in 1 Std. -
Ortszeit Stärke Spitze Richtung
km/h Bft. km/h Grad Sektor
Do, 21.06. 8:00 9 2 22 290° W
Do, 21.06. 2:00 4 1 14 290° W
Mi, 20.06. 20:00 4 1 22 310° NW
Mi, 20.06. 14:00 7 2 22 210° SW
Mi, 20.06. 8:00 4 1 11 180° S
Mi, 20.06. 2:00 4 1 7 260° W
Di, 19.06. 20:00 4 1 18 20° N
Di, 19.06. 14:00 6 1 15 330° NW
Ortszeit Stärke Spitze Richtung
km/h Bft. km/h Grad Sektor
Do, 21.06. 8:30 7 2 22 290° W
Do, 21.06. 8:10 11 2 - 280° W
Do, 21.06. 8:00 9 2 22 290° W
Do, 21.06. 7:50 9 2 - 290° W
Do, 21.06. 7:40 11 2 - 270° W
Do, 21.06. 7:30 7 2 14 250° W
Do, 21.06. 7:00 7 2 22 240° SW
Do, 21.06. 6:30 7 2 22 250° W
Do, 21.06. 6:00 7 2 18 240° SW
Do, 21.06. 5:30 6 1 15 230° SW
Ortszeit Untergrenze Bedeckung Gattung
total tief tief mittel hoch
Do, 21.06. 8:00 540 m 8/8 7/8 - - -
Do, 21.06. 2:00 1500 m 0/8 0/8 - - -
Mi, 20.06. 20:00 9000 m 2/8 0/8 - - -
Mi, 20.06. 14:00 1320 m 6/8 - - - -
Mi, 20.06. 8:00 1110 m 8/8 8/8 - - -
Mi, 20.06. 2:00 1080 m 8/8 8/8 - - -
Di, 19.06. 20:00 1290 m 8/8 8/8 - - -
Di, 19.06. 14:00 390 m 8/8 8/8 - - -
Ortszeit Bedeckungsgrad in Achtel und Wolkenuntergrenze
Do, 21.06. 8:30 7(510m) 7(750m)
Do, 21.06. 8:10 6(510m) 7(780m) 7(8100m)
Do, 21.06. 8:00 7(540m) 8(8700m)
Do, 21.06. 7:50 7(540m) 8(8700m)
Do, 21.06. 7:40 6(570m) 8(9000m)
Do, 21.06. 7:30 8(9000m) 8(9000m)
Do, 21.06. 7:00 5(9000m)
Do, 21.06. 6:30 keine Wolken
Do, 21.06. 6:00 2(7500m)
Do, 21.06. 5:30 6(7200m)
Ortszeit Luftdruck NN (hPa) Tendenz (hPa in 3 Std.)
Do, 21.06. 8:00 1016 - 0,3
Do, 21.06. 2:00 1017 - 0,9
Mi, 20.06. 20:00 1017 - 1,4
Mi, 20.06. 14:00 1020 - 1,5
Mi, 20.06. 8:00 1023 - 0,5
Mi, 20.06. 2:00 1024 - 0,3
Di, 19.06. 20:00 1024 - 0,3
Di, 19.06. 14:00 1025 + 0,6
Ortszeit Luftdruck NN (hPa) Tendenz (hPa in 3 Std.)
Do, 21.06. 8:30 1015 - 0,1
Do, 21.06. 8:10 1015 keine Meldung
Do, 21.06. 8:00 1016 - 0,3
Do, 21.06. 7:50 1016 keine Meldung
Do, 21.06. 7:40 1016 keine Meldung
Do, 21.06. 7:30 1016 - 0,5
Do, 21.06. 7:00 1015 - 0,9
Do, 21.06. 6:30 1016 - 1,0
Do, 21.06. 6:00 1015 - 1,6
Do, 21.06. 5:30 1016 - 1,5
Ortszeit Schneehöhe (cm)
Do, 21.06. 8:00 -
Do, 21.06. 2:00 -
Mi, 20.06. 20:00 -
Mi, 20.06. 14:00 -
Mi, 20.06. 8:00 -
Mi, 20.06. 2:00 -
Di, 19.06. 20:00 -
Di, 19.06. 14:00 -
Ortszeit Schneehöhe (cm)
Do, 21.06. 8:30 -
Do, 21.06. 8:10 -
Do, 21.06. 8:00 -
Do, 21.06. 7:50 -
Do, 21.06. 7:40 -
Do, 21.06. 7:30 -
Do, 21.06. 7:00 -
Do, 21.06. 6:30 -
Do, 21.06. 6:00 -
Do, 21.06. 5:30 -
Link zu dieser Seite / Seite empfehlen

Das Wetter in ...